#timestamp,LO_Frequency,Hit 
1498863615.3,286047033.3,N
1498863635.1,286047035.4,N
1498863636.0,286047035.4,N
1498863655.8,286047036.0,N
1498863675.7,286047036.4,N
1498863695.5,286047035.4,N
1498863715.3,286047036.1,N
1498863735.2,286047036.2,N
1498863755.9,286047035.7,N
1498863775.7,286047036.3,N
1498863795.5,286047035.7,N
1498863815.4,286047037.4,N
1498863835.2,286047037.9,N
1498863855.0,286047037.1,N
1498863855.9,286047037.1,N
1498863875.8,286047038.8,N
1498863895.6,286047039.3,N
1498863915.4,286047038.3,N
1498863935.3,286047040.5,N
1498863955.1,286047040.3,N
1498863975.8,286047038.4,N
1498863995.7,286047038.6,N
1498864015.5,286047041.0,N
1498864035.3,286047038.7,N
1498864055.2,286047037.8,N
1498864075.9,286047037.6,N
1498864095.7,286047036.6,N
1498864115.6,286047039.6,N
1498864135.4,286047036.7,N
1498864155.2,286047035.4,N
1498864175.0,286047037.2,N
1498864175.9,286047037.2,N
1498864195.8,286047039.5,N
1498864215.6,286047039.1,N
1498864235.4,286047040.4,N
1498864255.3,286047041.1,N
1498864275.1,286047039.7,N
1498864295.8,286047044.3,N
1498864315.7,286047041.6,N
1498864335.5,286047044.1,N
1498864355.3,286047042.4,N
1498864375.2,286047041.3,N
1498864395.9,286047044.1,N
1498864415.7,286047043.8,N
1498864435.6,286047043.2,N
1498864455.4,286047044.2,N
1498864475.2,286047047.4,N
1498864495.0,286047045.1,N
1498864496.0,286047045.1,N
1498864515.8,286047046.7,N
1498864535.6,286047047.3,N
1498864555.4,286047046.2,N
1498864575.3,286047049.1,N
1498864595.1,286047048.6,N
1498864615.8,286047045.1,N
1498864635.7,286047045.0,N
1498864655.5,286047043.3,N
1498864675.3,286047044.5,N
1498864695.2,286047047.1,N
1498864715.9,286047046.1,N
1498864735.7,286047050.1,N
1498864755.6,286047050.5,N
1498864775.4,286047052.3,N
1498864795.2,286047048.1,N
1498864815.0,286047048.3,N
1498864816.0,286047048.3,N
1498864835.8,286047047.6,N
1498864855.6,286047045.3,N
1498864875.4,286047047.4,N
1498864895.3,286047047.6,N
1498864915.1,286047047.1,N
1498864935.8,286047049.1,N
1498864955.7,286047050.3,N
1498864975.5,286047050.8,N
1498864995.3,286047047.8,N
1498865015.2,286047050.5,N
1498865035.9,286047049.6,N
1498865055.7,286047047.8,N
1498865075.6,286047046.4,N
1498865095.4,286047047.4,N
1498865115.2,286047046.7,N
1498865135.0,286047044.6,N
1498865136.0,286047044.6,N
1498865155.8,286047044.7,N
1498865175.6,286047046.6,N
1498865195.4,286047047.0,N
1498865215.3,286047047.2,N
1498865235.1,286047046.6,N
1498865255.8,286047047.7,N
1498865275.7,286047050.3,N
1498865295.5,286047050.3,N
1498865315.3,286047048.6,N
1498865335.2,286047050.8,N
1498865355.9,286047050.0,N
1498865375.7,286047050.4,N
1498865395.6,286047048.6,N
1498865415.4,286047046.9,N
1498865435.2,286047044.9,N
1498865455.1,286047048.8,N
1498865456.0,286047048.8,N
1498865475.8,286047045.2,N
1498865495.6,286047045.1,N
1498865515.4,286047044.7,N
1498865535.3,286047045.2,N
1498865555.1,286047045.6,N
1498865575.8,286047045.1,N
1498865595.7,286047048.9,N
1498865615.5,286047047.7,N
1498865635.3,286047046.2,N
1498865655.2,286047046.0,N
1498865675.9,286047044.9,N
1498865695.7,286047045.0,N
1498865715.6,286047044.7,N
1498865735.4,286047044.9,N
1498865755.2,286047047.6,N
1498865775.1,286047045.3,N
1498865776.0,286047045.3,N
1498865795.8,286047045.3,N
1498865815.6,286047044.6,N
1498865835.5,286047048.8,N
1498865855.3,286047046.3,N
1498865875.1,286047049.9,N
1498865895.8,286047052.6,N
1498865915.7,286047053.2,N
1498865935.5,286047051.8,N
1498865955.3,286047053.4,N
1498865975.2,286047053.7,N
1498865995.9,286047053.6,N
1498866015.7,286047050.9,N
1498866035.6,286047052.6,N
1498866055.4,286047054.0,N
1498866075.2,286047049.7,N
1498866095.1,286047052.3,N
1498866096.0,286047052.3,N
1498866115.8,286047051.6,N
1498866135.6,286047052.2,N
1498866155.5,286047052.2,N
1498866175.3,286047047.7,N
1498866195.1,286047048.4,N
1498866215.8,286047049.9,N
1498866235.7,286047050.5,N
1498866255.5,286047053.8,N
1498866275.3,286047049.8,N
1498866295.2,286047049.7,N
1498866315.0,286047050.2,N
1498866315.9,286047050.2,N
1498866335.7,286047048.5,N
1498866355.6,286047047.7,N
1498866375.4,286047048.0,N
1498866395.2,286047049.1,N
1498866415.1,286047050.3,N
1498866416.0,286047050.3,N
1498866435.8,286047048.6,N
1498866455.6,286047045.0,N
1498866475.5,286047048.7,N
1498866495.3,286047046.9,N
1498866515.1,286047047.5,N
1498866535.8,286047046.9,N
1498866555.7,286047047.1,N
1498866575.5,286047047.1,N
1498866595.3,286047049.1,N
1498866615.2,286047047.2,N
1498866635.0,286047047.0,N
1498866635.9,286047047.0,N
1498866655.7,286047046.8,N
1498866675.6,286047046.9,N
1498866695.4,286047047.3,N
1498866715.2,286047046.1,N
1498866735.1,286047046.6,N
1498866736.0,286047046.6,N
1498866755.8,286047044.7,N
1498866775.6,286047045.5,N
1498866795.5,286047047.4,N
1498866815.3,286047049.1,N
1498866835.1,286047048.5,N
1498866855.9,286047046.2,N
1498866875.7,286047048.5,N
1498866895.5,286047048.2,N
1498866915.4,286047050.7,N
1498866935.2,286047050.1,N
1498866955.0,286047050.4,N
1498866955.9,286047050.4,N
1498866975.7,286047050.6,N
1498866995.6,286047048.3,N
1498867015.4,286047050.8,N
1498867035.2,286047051.4,N
1498867055.1,286047052.3,N
1498867056.0,286047052.3,N
1498867075.8,286047049.6,N
1498867095.6,286047050.3,N
1498867115.5,286047049.5,N
1498867135.3,286047052.1,N
1498867155.1,286047049.6,N
1498867175.9,286047047.7,N
1498867195.7,286047049.5,N
